IRIDIUM 19 [+]

Last updated on Dec. 19, 2017, 12:19 a.m. UTC

1 24965U 97056A   17352.29625652  .00231570 -14104-5  72991-3 0  9993
2 24965  86.3957 240.6178 0330727 126.7233 236.4889 15.39212258 59080

Satellite is not in orbit.